Regional Weather Roundup
Issued by NWS

Home | Current Version | Previous Version | Graphics & Text | Print | Product List | Glossary Off
Versions: 1 2 3 4 5 6 7 8 9 10 11 12 13 14 15 16 17 18 19 20 21 22 23 24 25 26 27 28 29 30 31 32 33 34 35 36 37 38 39 40 41 42 43 44 45 46 47 48 49 50

000
ASUS43 KMPX 250601
RWRMN
WEATHER ROUNDUP FOR MINNESOTA
NATIONAL WEATHER SERVICE TWIN CITIES/CHANHASSEN MN
100 AM CDT SUN JUN 25 2017


NOTE: "FAIR" INDICATES FEW OR NO CLOUDS BELOW 12,000 FEET WITH NO
SIGNIFICANT WEATHER AND/OR OBSTRUCTIONS TO VISIBILITY. N/A MEANS
CURRENT SKY AND/OR WEATHER CONDITIONS ARE NOT AVAILABLE.

MNZ060>063-068>070-250700-
   Twin Cities Metro

CITY           SKY/WX    TMP DP  RH WIND       PRES   REMARKS
TWIN CITIES    MOCLDY    57  47  69 W7        30.08S
6HR MIN TEMP:  56; 6HR MAX TEMP:  64;

ST PAUL        MOCLDY    57  49  74 NW12      30.08S
CRYSTAL        CLOUDY    56  46  69 NW12      30.07S
BLAINE         PTCLDY    55  48  76 NW9       30.08R
LAKEVILLE      PTCLDY    52  46  82 W6        30.09S
EDEN PRAIRIE   CLOUDY    59  48  67 NW12G18   30.08S
6HR MIN TEMP:  56; 6HR MAX TEMP:  64; 6HR PCP: TRACE;

SOUTH ST PAUL  PTCLDY    57  47  71 NW7G16    30.08R
LAKE ELMO      FAIR      54  48  82 W8        30.08S
$$
MNZ001>005-007-008-013>017-022>024-027-028-250700-
   Northwest Minnesota

CITY           SKY/WX    TMP DP  RH WIND       PRES   REMARKS
BEMIDJI        DRIZZLE   51  50  97 NW14      30.08R
HALLOCK        PTCLDY    46  45  93 NW6       30.18R
ROSEAU         DRIZZLE   50  45  81 NW10      30.13S
WARROAD        LGT RAIN  50  46  87 NW7       30.13R
THIEF RVR FALL CLOUDY    50  48  93 NW17      30.15S
CROOKSTON      CLOUDY    52  46  82 N9        30.18R
FOSSTON        CLOUDY    48  46  93 NW12      30.14R
DETROIT LAKES  DRIZZLE   48  46  93 NW12      30.15S
MOORHEAD       CLOUDY    52  43  71 NW10      30.19R
PARK RAPIDS    CLOUDY    51  47  86 NW15      30.09S
MAHNOMEN       CLOUDY    49  47  93 NW15      30.14R
$$
MNZ006-009>011-018-025>026-250700-
   North Central Minnesota

CITY           SKY/WX    TMP DP  RH WIND       PRES   REMARKS
BAUDETTE       LGT RAIN  53  51  93 N9        30.08R
FLAG ISLAND    PTCLDY    52  50  93 NW20      30.09S
INTL FALLS     LGT RAIN  54  51  90 N7        30.04S
6HR MIN TEMP:  53; 6HR MAX TEMP:  60; 6HR PCP:  0.29;

WASKISH        DRIZZLE   54  52  94 N6        30.07R
BIG FORK       CLOUDY    54  50  87 CALM      30.03S
LONGVILLE      CLOUDY    54  52  94 W6        30.05S
GRAND RAPIDS   CLOUDY    54  52  93 W6        30.05R
CRANE LAKE     CLOUDY    54  52  94 N5        30.03S
ORR            CLOUDY    54  48  82 CALM      30.00S
COOK           CLOUDY    54  52  94 CALM      30.02S
WALKER         DRIZZLE   51  50  97 W9        30.07R
$$
MNZ012-019>021-037-250700-
   Northeast Minnesota

CITY           SKY/WX    TMP DP  RH WIND       PRES   REMARKS
DULUTH         CLOUDY    52  50  93 NW7       29.99S
6HR MIN TEMP:  51; 6HR MAX TEMP:  59; 6HR PCP: TRACE;

ELY            DRIZZLE   54  52  94 NW3       30.00S
HIBBING        CLOUDY    51  50  96 NW3       30.01S
EVELETH        CLOUDY    55  47  74 N5        30.02S
DULUTH HARBOR  CLOUDY    59  52  77 W9        30.00S
TWO HARBORS    CLOUDY    55  52  88 CALM      29.97S
SILVER BAY     CLOUDY    55  52  88 CALM      29.96S
GRAND MARAIS     N/A     57  54  89 N9G17     29.94
G MARAIS ARPRT CLOUDY    52  46  82 NW5       29.98S
$$
MNZ029>031-032-039>041-046>048-054>057-064-250700-
   West Central Minnesota

CITY           SKY/WX    TMP DP  RH WIND       PRES   REMARKS
FERGUS FALLS   CLOUDY    48  48 100 NW13G22   30.16S
WHEATON        CLOUDY    52  43  71 NW9       30.22R
MORRIS         MOCLDY    52  46  82 NW15G24   30.17R
ALEXANDRIA     CLOUDY    50  48  93 NW18G25   30.15R
ELBOW LAKE     CLOUDY    49  47  92 W16       30.17S
WADENA         CLOUDY    48  46  93 NW12      30.11S
GLENWOOD       CLOUDY    52  46  82 NW16G22   30.14S
APPLETON       CLOUDY    55  45  67 NW13G18   30.17S
BENSON         MOCLDY    54  46  76 N13       30.18R
ORTONVILLE     CLOUDY    54  43  66 NW17G24   30.19R
MADISON        MOCLDY    57  45  62 NW15G22   30.19R
WILLMAR        FAIR      54  48  82 NW12      30.16R
$$
MNZ033>034-036-042>043-049>051-058-059-250700-
   Central Minnesota

CITY           SKY/WX    TMP DP  RH WIND       PRES   REMARKS
ST CLOUD       CLOUDY    54  49  83 NW13      30.09S
6HR MIN TEMP:  54; 6HR MAX TEMP:  61; 6HR PCP: TRACE;

SAUK CENTRE    CLOUDY    53  46  77 NW17      30.12S
PAYNESVILLE    CLOUDY    55  45  70 NW12G18   30.12S
AITKIN         CLEAR     50  46  87 CALM      30.04S
PINE RIVER     CLOUDY    52  50  93 W6        30.10S FOG
BRAINERD       CLOUDY    53  49  86 NW12      30.08S
STAPLES        CLOUDY    50  46  87 NW14      30.10S
LONG PRAIRIE   CLOUDY    50  46  87 W13       30.12S
LITTLE FALLS   CLOUDY    52  45  76 W9        30.09S
LITCHFIELD     CLOUDY    57  52  82 NW7       30.12S
BUFFALO        CLOUDY    56  47  72 NW9       30.11S
MAPLE LAKE     CLOUDY    56  50  80 W8        30.10F
HUTCHINSON     MOCLDY    55  52  87 W5        30.13S
$$
MNZ037-044-045-052-053-250700-
   East Central Minnesota

CITY           SKY/WX    TMP DP  RH WIND       PRES   REMARKS
PRINCETON      CLOUDY    55  48  76 W14       30.08S
MORA           CLEAR     52  46  82 NW9       30.07R
CAMBRIDGE      CLOUDY    57  46  67 W9G17     30.05S
RUSH CITY      CLOUDY    54  50  87 W6        30.06R
MOOSE LAKE     CLEAR     50  46  87 W7        30.01S
HINCKLEY       FAIR      50  48  93 W3        30.04S
CLOQUET        CLEAR     52  45  76 W6        30.01S
MCGREGOR       CLEAR     52  50  93 W7        30.04S
$$
MNZ071>073-080-081-089-090-097-098-250700-
   Southwest Minnesota

CITY           SKY/WX    TMP DP  RH WIND       PRES   REMARKS
MONTEVIDEO     CLOUDY    55  45  67 N9        30.17S
GRANITE FALLS  MOCLDY    57  45  62 NW15      30.18S
CANBY          CLEAR     55  47  72 W13G18    30.20S
MARSHALL       CLOUDY    56  46  69 NW13      30.19R
REDWOOD FALLS  MOCLDY    56  45  66 NW12      30.15S
OLIVIA         PTCLDY    54  46  76 NW12      30.14S
PIPESTONE      PTCLDY    55  45  67 N12G23    30.20S
WINDOM         CLEAR     54  45  71 NW8       30.17S
WORTHINGTON    CLEAR     51  44  77 NW8       30.21R
JACKSON        CLEAR     54  43  66 CALM      30.18S
TRACY          CLOUDY    57  47  70 NW9       30.19R
SLAYTON        MOCLDY    54  44  69 NW9       30.20S
$$
MNZ065>067-074>077-082>085-091>093-250700-
   South Central Minnesota

CITY           SKY/WX    TMP DP  RH WIND       PRES   REMARKS
MANKATO        CLEAR     55  46  71 NW10      30.13S
NEW ULM        CLEAR     54  45  71 W7        30.14S
ST JAMES       CLEAR     54  45  71 W8        30.16S
FAIRMONT       CLEAR     52  44  74 NW9       30.17R
GLENCOE        CLOUDY    56  52  85 W6        30.11S
FARIBAULT      MOCLDY    55  46  71 W7        30.11S
OWATONNA       PTCLDY    52  46  82 W7        30.11S
WASECA         PTCLDY    52  46  82 W7        30.13S
ALBERT LEA     CLEAR     54  45  71 W5        30.13S
$$
MNZ078>079-086>088-094>096-250700-
   Southeast Minnesota

CITY           SKY/WX    TMP DP  RH WIND       PRES   REMARKS
ROCHESTER      CLEAR     49  45  86 W7        30.10S
6HR MIN TEMP:  49; 6HR MAX TEMP:  62;

RED WING       CLEAR     54  46  76 NW3       30.06S
STANTON        CLEAR     54  47  77 W6        30.08F
DODGE CENTER   CLEAR     48  45  87 W7        30.10S
WINONA         CLEAR     54  50  87 N3        30.07S
AUSTIN         CLEAR     52  45  76 W6        30.11S
PRESTON        CLEAR     50  44  79 NW7       30.10S
$$
ABBREVIATIONS USED IN REMARKS
   TC - TEMPERATURES IN CELSIUS
  WCI - WIND CHILL INDEX
   HX - HEAT INDEX
  VSB - VISIBILITY
$$



USA.gov is the U.S. government's official web portal to all federal, state and local government web resources and services.